Miscellaneous Local Product
Issued by NWS Hastings, NE

Home | Current Version | Previous Version | Graphics & Text | Print | Product List | Glossary On
Versions: 1 2 3 4 5 6 7 8 9 10 11 12 13 14 15 16 17 18 19 20 21 22 23 24 25 26 27 28 29 30 31 32 33 34 35 36 37 38 39 40 41 42 43 44 45 46 47 48 49 50
194
AXUS43 KGID 231602
MISGRI

GID CWA HOURLY WEATHER ROUNDUP
NATIONAL WEATHER SERVICE HASTINGS NE
1100 AM CDT THU MAR 23 2017

NOTE: "FAIR" INDICATES FEW OR NO CLOUDS BELOW 12,000 FEET WITH NO
SIGNIFICANT WEATHER AND/OR OBSTRUCTIONS TO VISIBILITY.

...SOUTH CENTRAL NEBRASKA...

CITY           SKY/WX    TMP DP  RH WIND       PRES   REMARKS
GRAND ISLAND   CLOUDY    49  49 100 S17G25    29.79F FOG
HASTINGS       CLOUDY    50  48  93 S17G23    29.79F FOG
KEARNEY        CLOUDY    52  46  82 S18G25    29.76F
ORD            FOG       48  46  93 SE12      29.76F VSB 1
YORK           CLOUDY    54  46  76 S20G28    29.82F
AURORA         CLOUDY    52  47  84 S22       29.80F
LEXINGTON      FOG       51  49  95 S15       29.73F VSB 3/4
HOLDREGE       FOG       50  49  96 SE16      29.75F VSB 1/2
HEBRON         CLOUDY    55  47  74 SE21G26   29.84F

...NEBRASKA PANHANDLE...

CITY           SKY/WX    TMP DP  RH WIND       PRES   REMARKS
CHADRON        SUNNY     56  40  55 W9        29.65S
ALLIANCE       PTSUNNY   43  38  82 S5        29.67F
SCOTTSBLUFF    SUNNY     48  36  63 W5        29.67F
SIDNEY         SUNNY     46  38  73 NW7       29.68S

...WESTERN AND NORTH CENTRAL NEBRASKA...

CITY           SKY/WX    TMP DP  RH WIND       PRES   REMARKS
VALENTINE      CLOUDY    47  40  76 S17       29.70S
AINSWORTH      CLOUDY    47  44  88 S12       29.71S
ONEILL         CLOUDY    49  43  79 S18G30    29.75F
BROKEN BOW     LGT RAIN  49  32  52 SE10      29.74F
IMPERIAL       SUNNY     56  48  74 S9        29.67F
NORTH PLATTE   CLOUDY    50  47  89 SE7       29.71F FOG
MCCOOK         CLOUDY    56  56 100 SE10      29.69F FOG

...EASTERN NEBRASKA...

CITY           SKY/WX    TMP DP  RH WIND       PRES   REMARKS
NORFOLK        CLOUDY    51  42  71 S23G29    29.82F
SO SIOUX CITY  CLOUDY    47  33  58 SE16G25   29.88F
TEKAMAH        CLOUDY    52  35  52 SE28      29.89F
COLUMBUS       CLOUDY    54  43  66 S18G26    29.85S
ALBION         CLOUDY    50  45  83 SE16G23   29.80F HAZE
OMAHA EPPLEY   CLOUDY    53  33  46 SE23G29   29.92F
OFFUTT AFB     CLOUDY    53  32  45 SE20G29   29.92F
MILLARD        CLOUDY    54  36  50 SE17      29.91F
LINCOLN        CLOUDY    56  39  53 SE20G28   29.88F
NEBRASKA CITY  CLOUDY    55  29  36 S18       29.93F
BEATRICE       CLOUDY    58  43  57 SE14G25   29.87F
FALLS CITY     SUNNY     60  40  47 S21G33    29.95F

...NORTHERN KANSAS...

CITY           SKY/WX    TMP DP  RH WIND       PRES   REMARKS
GOODLAND       CLOUDY    53  49  86 S23       29.69F
HILL CITY      CLOUDY    62  58  86 S10       29.75S FOG
NORTON         CLOUDY    55  52  88 SE10      29.72  FOG
PHILLIPSBURG   CLOUDY    59  55  88 SE16G22   29.75F
HAYS             N/A     62  56  80 S23G31    29.76F
RUSSELL        CLOUDY    62  56  80 S29G39    29.76F
CONCORDIA      CLOUDY    58  52  80 S20       29.83F
SALINA         CLOUDY    65  54  67 S26G41    29.85F
TOPEKA         SUNNY     64  48  56 S20G31    29.97F



USA.gov is the U.S. government's official web portal to all federal, state and local government web resources and services.